Regional Weather Roundup
Issued by NWS

Home | Current Version | Previous Version | Text Only | Print | Product List | Glossary Off
Versions: 1 2 3 4 5 6 7 8 9 10 11 12 13 14 15 16 17 18 19 20 21 22 23 24 25 26 27 28 29 30 31 32 33 34 35 36 37 38 39 40 41 42 43 44 45 46 47 48 49 50

000
ASUS43 KMPX 230901
RWRMN
WEATHER ROUNDUP FOR MINNESOTA
NATIONAL WEATHER SERVICE TWIN CITIES/CHANHASSEN MN
400 AM CDT SAT MAY 23 2015


NOTE: "FAIR" INDICATES FEW OR NO CLOUDS BELOW 12,000 FEET WITH NO
SIGNIFICANT WEATHER AND/OR OBSTRUCTIONS TO VISIBILITY. N/A MEANS
CURRENT SKY AND/OR WEATHER CONDITIONS ARE NOT AVAILABLE.

MNZ060>063-068>070-231000-
   Twin Cities Metro

CITY           SKY/WX    TMP DP  RH WIND       PRES   REMARKS
TWIN CITIES    PTCLDY    58  37  45 CALM      30.22R
ST PAUL        CLEAR     48  44  86 NW5       30.22S
CRYSTAL        CLEAR     48  41  76 SE3       30.21R
BLAINE         CLEAR     52  45  76 S3        30.22R
LAKEVILLE      PTCLDY    46  39  76 CALM      30.22S
EDEN PRAIRIE   CLEAR     52  41  66 CALM      30.21S
SOUTH ST PAUL  CLEAR     49  44  83 CALM      30.22R
LAKE ELMO      FAIR      45  43  93 CALM      30.23R
$$
MNZ001>005-007-008-013>017-022>024-027-028-231000-
   Northwest Minnesota

CITY           SKY/WX    TMP DP  RH WIND       PRES   REMARKS
BEMIDJI        CLEAR     44  38  82 CALM      30.18R
HALLOCK        CLEAR     48  43  81 SE7       30.12S
ROSEAU         PTCLDY    54  43  66 SW9       30.13S
WARROAD        PTCLDY    57  43  58 SW6       30.13S
THIEF RVR FALL CLEAR     55  36  47 S5        30.15S
CROOKSTON      CLEAR     48  39  71 S7        30.15S
FOSSTON        CLEAR     48  37  66 S5        30.17S
DETROIT LAKES  CLEAR     50  43  76 S5        30.19S
MOORHEAD       CLEAR     52  43  71 S8        30.17S
PARK RAPIDS    CLEAR     47  39  74 CALM      30.19R
MAHNOMEN       FAIR      52  39  62 S6        30.17S
$$
MNZ006-009>011-018-025>026-231000-
   North Central Minnesota

CITY           SKY/WX    TMP DP  RH WIND       PRES   REMARKS
BAUDETTE       CLEAR     53  39  59 CALM      30.12S
FLAG ISLAND    PTCLDY    61  41  48 W13       30.08S
INTL FALLS     CLEAR     47  38  71 SW5       30.13S
WASKISH        CLEAR     55  43  62 CALM      30.16S
BIG FORK       CLEAR     43  39  87 CALM      30.18R
LONGVILLE      CLEAR     39  39 100 CALM      30.19S
GRAND RAPIDS   CLEAR     43  36  75 CALM      30.19S
CRANE LAKE     CLEAR     39  37  93 CALM      30.16R
COOK           CLEAR     54  37  54 SW3       30.17R
WALKER         FAIR      48  37  65 SW3       30.18S
$$
MNZ012-019>021-037-231000-
   Northeast Minnesota

CITY           SKY/WX    TMP DP  RH WIND       PRES   REMARKS
DULUTH         CLEAR     53  36  52 W8        30.20R
ELY            CLEAR     52  36  54 SW5       30.16S
HIBBING        CLEAR     38  34  85 CALM      30.18R
EVELETH        CLEAR     39  36  87 CALM      30.19S
DULUTH HARBOR  CLEAR     45  39  81 CALM      30.20S
TWO HARBORS    CLEAR     55  39  54 W5        30.17R
SILVER BAY     CLEAR     37  34  87 CALM      30.16S
GRAND MARAIS     N/A     39  33  79 W6        30.14S
G MARAIS ARPRT CLEAR     50  30  46 W7        30.15S
$$
MNZ029>031-032-039>041-046>048-054>057-064-231000-
   West Central Minnesota

CITY           SKY/WX    TMP DP  RH WIND       PRES   REMARKS
FERGUS FALLS   CLEAR     52  41  66 CALM      30.20S
WHEATON        CLEAR     45  41  87 CALM      30.22R
MORRIS         CLEAR     50  45  81 CALM      30.20S
ALEXANDRIA     CLEAR     50  43  77 SW6       30.22R
ELBOW LAKE     FAIR      49  43  80 SW5       30.20R
WADENA         CLEAR     50  39  66 CALM      30.19S
GLENWOOD       CLEAR     52  45  76 SW3       30.22R
APPLETON       CLEAR     48  45  87 CALM      30.20S
BENSON         PTCLDY    48  45  87 CALM      30.21S
ORTONVILLE     CLEAR     48  43  81 S3          N/A
MADISON        FAIR      48  43  81 S5        30.21R
WILLMAR        FAIR      52  45  76 N3        30.23S
$$
MNZ033>034-036-042>043-049>051-058-059-231000-
   Central Minnesota

CITY           SKY/WX    TMP DP  RH WIND       PRES   REMARKS
ST CLOUD       CLEAR     44  42  93 CALM      30.21S
SAUK CENTRE    FAIR      49  40  71 S3        30.21S
PAYNESVILLE    CLEAR     45  41  85 SW3       30.22S
AITKIN         CLEAR     41  36  81 CALM      30.19S HAZE
PINE RIVER     CLEAR     43  39  87 CALM      30.23R
BRAINERD       CLEAR     43  41  93 CALM      30.21R
STAPLES        FAIR      45  39  81 CALM      30.20S
LONG PRAIRIE   FAIR      46  41  81 S3        30.21S
LITTLE FALLS   CLEAR     45  37  76 CALM      30.21S
LITCHFIELD     PTCLDY    57  45  62 NW8       30.22S
BUFFALO        CLEAR     48  42  79 CALM      30.22S
MAPLE LAKE     CLEAR     47  44  87 CALM      30.22S
$$
MNZ037-044-045-052-053-231000-
   East Central Minnesota

CITY           SKY/WX    TMP DP  RH WIND       PRES   REMARKS
PRINCETON      CLEAR     45  41  87 CALM      30.22R
MORA           CLEAR     39  37  93 CALM      30.23R FOG
CAMBRIDGE      CLEAR     52  39  62 CALM      30.20R
RUSH CITY      CLEAR     42  39  91 CALM      30.22R
MOOSE LAKE     CLEAR     37  36  93 CALM      30.20R
HINCKLEY       FAIR      39  37  93 CALM      30.22S
CLOQUET        CLEAR     54  34  47 SW6       30.20S
MCGREGOR       CLEAR     45  39  81 CALM      30.21R
$$
MNZ071>073-080-081-089-090-097-098-231000-
   Southwest Minnesota

CITY           SKY/WX    TMP DP  RH WIND       PRES   REMARKS
MONTEVIDEO     PTCLDY    50  45  81 CALM      30.22S
GRANITE FALLS  PTCLDY    50  43  76 CALM      30.23R
CANBY          PTCLDY    52  43  72 CALM      30.23R
MARSHALL       MOCLDY    54  43  66 CALM      30.23R
REDWOOD FALLS  PTCLDY    53  43  68 CALM      30.22R
OLIVIA         PTCLDY    50  39  66 CALM      30.21S
PIPESTONE      CLOUDY    55  45  67 CALM      30.21F
WINDOM         CLOUDY    57  43  58 SW7       30.24R
WORTHINGTON    CLOUDY    55  45  67 SE7       30.24S
JACKSON        CLOUDY    55  45  67 S6        30.25R
TRACY          CLOUDY    55  45  71 CALM      30.23S
SLAYTON        CLOUDY    53  46  76 CALM      30.24R
$$
MNZ065>067-074>077-082>085-091>093-231000-
   South Central Minnesota

CITY           SKY/WX    TMP DP  RH WIND       PRES   REMARKS
MANKATO        MOCLDY    57  43  58 W5        30.23S
NEW ULM        MOCLDY    54  43  66 CALM      30.22S
ST JAMES       CLOUDY    55  46  71 CALM      30.24R
FAIRMONT       CLOUDY    55  41  58 N3        30.23S
GLENCOE        PTCLDY    55  45  70 NW6       30.21S
FARIBAULT      MOCLDY    52  41  66 CALM      30.22S
OWATONNA       CLOUDY    55  39  54 W3        30.23R
WASECA         CLOUDY    54  43  66 W3        30.24R
ALBERT LEA     CLOUDY    59  43  55 W5        30.24R
$$
MNZ078>079-086>088-094>096-231000-
   Southeast Minnesota

CITY           SKY/WX    TMP DP  RH WIND       PRES   REMARKS
ROCHESTER      MOCLDY    52  42  69 S5        30.24S
RED WING       CLEAR     45  43  93 CALM      30.22S
STANTON        PTCLDY    49  40  71 NE3       30.20F
DODGE CENTER   MOCLDY    54  43  66 S3        30.23S
WINONA         PTCLDY    48  46  93 CALM      30.24S
AUSTIN         CLOUDY    55  41  58 CALM      30.23S
PRESTON        MOCLDY    54  41  61 CALM      30.24R
$$
ABBREVIATIONS USED IN REMARKS
   TC - TEMPERATURES IN CELSIUS
  WCI - WIND CHILL INDEX
   HX - HEAT INDEX
  VSB - VISIBILITY
$$


USA.gov is the U.S. government's official web portal to all federal, state and local government web resources and services.